Regional Weather Roundup
Issued by NWS Sterling, VA

Home | Current Version | Previous Version | Text Only | Print | Product List | Glossary Off
Versions: 1 2 3 4 5 6 7 8 9 10 11 12 13 14 15 16 17 18 19 20 21 22 23 24 25 26 27 28 29 30 31 32 33 34 35 36 37 38 39 40 41 42 43 44 45 46 47 48 49 50

000
ASUS41 KLWX 220211
RWRLWX

REGIONAL WEATHER ROUNDUP
NATIONAL WEATHER SERVICE BALTIMORE MD/WASHINGTON DC
1000 PM EDT WED JUN 21 2017

Note: "FAIR" indicates few or no clouds below 12,000 feet
with no significant weather and/or obstructions to visibility.
 TC=TEMPERATURE CELSIUS

 * =Non NWS site. Station does not report precipitation (e.g. rain,
    snow, etc.), thunder, or fog.

DCZ001-MDZ009-015-VAZ040>042-051-053>054-220300-
WASHINGTON METRO

CITY           SKY/WX    TMP DP  RH WIND       PRES   REMARKS
WASHINGTON NAT MOCLDY    82  70  66 S3        29.97R
DULLES         CLOUDY    76  66  71 CALM      29.97R
ANDREWS AFB    PTCLDY    78  67  68 SW5       29.97R
FT BELVOIR     MOCLDY    74  69  81 CALM      29.97R
QUANTICO       CLOUDY    82  70  66 SW9       29.98R
COLLEGE PARK*  PTCLDY    76  62  62 CALM      29.97R
LEESBURG*      CLOUDY    79  64  61 CALM      29.99R
MANASSAS*      CLOUDY    75  70  84 CALM      29.97R
GAITHERSBURG*  CLOUDY    73  62  68 CALM      30.00R

$$

MDZ006>007-011-014-220300-
BALTIMORE METRO

CITY           SKY/WX    TMP DP  RH WIND       PRES   REMARKS
BWI AIRPORT    MOCLDY    73  64  73 NW5       29.97R
MD SCIENCE CTR   N/A     76  67  73 MISG      29.98R
MARTIN STATE   MOCLDY    72  72 100 CALM      29.97R
ANNAPOLIS      PTCLDY    76  70  82 CALM      29.97R
FORT MEADE*    PTCLDY    70  63  78 CALM      30.00R

$$

MDZ012-015-019>023-220300-
MARYLAND EASTERN SHORE

CITY           SKY/WX    TMP DP  RH WIND       PRES   REMARKS
OCEAN CITY     CLEAR     76  72  87 S8        29.98S
SALISBURY      CLEAR     74  72  93 SW7       29.98R
BAY BRIDGE AP* MOCLDY    73  68  83 CALM      29.97R
CAMBRIDGE*     CLEAR     79  72  78 CALM      29.97R
EASTON*        CLEAR     74  65  73 CALM      30.01R

$$

MDZ017>025-220300-
SOUTHERN MARYLAND

CITY           SKY/WX    TMP DP  RH WIND       PRES   REMARKS
PATUXENT RIVER CLOUDY    80  68  66 SW9       29.97R
ST INIGOES     PTCLDY    81  71  71 SW13      29.97R
LEONARDTOWN*   CLOUDY    79  68  69 SW7       29.99R

$$

MDZ003>005-220300-
NORTH CENTRAL MARYLAND

CITY           SKY/WX    TMP DP  RH WIND       PRES   REMARKS
FREDERICK*     MOCLDY    70  68  94 CALM      30.00R
HAGERSTOWN APT CLOUDY    75  64  68 CALM      29.99R
WESTMINSTER*   CLEAR     72  66  83 CALM      29.99R

$$

MDZ501>502-220300-
WESTERN MARYLAND

CITY           SKY/WX    TMP DP  RH WIND       PRES   REMARKS
OAKLAND*       NOT AVBL
CUMBERLAND*    PTCLDY    70  70 100 CALM      30.04R

$$

VAZ025>031-220300-
SHENANDOAH VALLEY

CITY           SKY/WX    TMP DP  RH WIND       PRES   REMARKS
WINCHESTER*    CLOUDY    70  59  68 NE3       29.99R
FRONT ROYAL*   CLOUDY    73  63  68 CALM      29.98R
LURAY*         CLOUDY    75  64  69 S3        29.99S
NEW MARKET*    CLOUDY    71  63  75 CALM      29.99R
STAUNTON*      CLOUDY    73  63  71 CALM      30.05R
WAYNESBORO*    MOCLDY    73  65  76 CALM      30.05R

$$

WVZ021-048>050-054>055-220300-
EASTERN WEST VIRGINIA PANHANDLE

CITY           SKY/WX    TMP DP  RH WIND       PRES   REMARKS
MARTINSBURG    CLOUDY    72  63  73 CALM      29.98R
PETERSBURG*    CLOUDY    72  66  81 CALM      30.02R

$$

VAZ036>039-050-220300-
CENTRAL FOOTHILLS

CITY           SKY/WX    TMP DP  RH WIND       PRES   REMARKS
CHARLOTTESVILL PTCLDY    77  70  79 S6        30.00R
CULPEPER*      CLOUDY    77  68  73 SW6       29.98R
ORANGE*        CLEAR     77  68  73 S5        29.99R
GORDONSVILLE*  CLEAR     76  71  83 SW3       29.99R
WARRENTON*     PTCLDY    76  64  67 S5        29.98R

$$

VAZ055>057-220300-
NORTH AND CENTRAL PIEDMONT

CITY           SKY/WX    TMP DP  RH WIND       PRES   REMARKS
FREDERICKSBRG* CLOUDY    80  70  70 SW9       29.97R
STAFFORD*      CLOUDY    78  69  73 SW5       30.02R

$$

NCZ024-NYZ072-PAZ021-071-VAZ022-071-220300-
OTHER REGIONAL OBSERVATIONS

CITY           SKY/WX    TMP DP  RH WIND       PRES   REMARKS
NEW YORK CITY  CLEAR     76  58  53 W3        29.95R
PHILADELPHIA   PTCLDY    71  65  81 S6        29.97R
PITTSBURGH     MOCLDY    74  63  68 NW3       29.98S
ROANOKE        CLOUDY    77  65  66 CALM      30.07R
RICHMOND       MOCLDY    76  71  85 S7        30.01R
RALEIGH        MOCLDY    76  71  85 SW8       30.07R

$$

ANZ530>537-220300-
MARINE OBSERVATIONS

STATION/POSITION TIME  TEMP    WIND        PRES
                       AIR SEA DIR/SP/G
                 (UTC) (F)     (DEG/KT/KT) (MB)
THOMAS PT LIGHT  0200   76 77   40/  6/  6   N/A
BALT KEY BRIDGE  0148   76     220/  3/  4 1014.5R
COVE POINT       0148   81     240/ 13/ 17 1015.3R
LEWISETTA        0148   80 80  230/  9/ 10 1015.2R
SOLOMONS ISLAND  0148   80 76  220/ 12/ 15   N/A
PINEY POINT      0148          240/  8/ 11   N/A

$$




USA.gov is the U.S. government's official web portal to all federal, state and local government web resources and services.